Regional Weather Roundup
Issued by NWS

Home | Current Version | Previous Version | Text Only | Print | Product List | Glossary On
Versions: 1 2 3 4 5 6 7 8 9 10 11 12 13 14 15 16 17 18 19 20 21 22 23 24 25 26 27 28 29 30 31 32 33 34 35 36 37 38 39 40 41 42 43 44 45 46 47 48 49 50
000
ASUS43 KLSX 260807
RWRMO

WEATHER SUMMARY FOR MISSOURI
NATIONAL WEATHER SERVICE SPRINGFIELD MO
300 AM CDT SUN APR 26 2015

NOTE: "FAIR" INDICATES FEW OR NO CLOUDS BELOW 12,000 FEET WITH NO
       SIGNIFICANT WEATHER AND/OR OBSTRUCTIONS TO VISIBILITY.
       CURRENT SKY AND/OR WEATHER CONDITIONS ARE NOT AVAILABLE FOR
       CHILLICOTHE AND FARMINGTON.

MOZ001>031-035>038-043-044-053-054-260900-
...NORTHERN AND WESTERN MISSOURI...

CITY           SKY/WX    TMP DP  RH WIND       PRES   REMARKS
KANSAS CTY INT DRIZZLE   48  46  93 E15       29.85R
KANSAS C DTWN  CLOUDY    50  46  86 NE13      29.84F FOG
LEE`S SUMMIT   CLOUDY    49  46  90 NE13      29.84S
ST JOSEPH      CLOUDY    49  45  86 NE9       29.88R FOG
CHILLICOTHE      N/A     49  44  83 NE8       29.89R
KIRKSVILLE     CLOUDY    47  42  83 NE13      29.88S

$$
MOZ066>068-077>081-088>096-101>105-260900-
...SOUTHWEST MISSOURI...

CITY           SKY/WX    TMP DP  RH WIND       PRES   REMARKS
SPRINGFIELD    CLOUDY    54  51  90 N10       29.76S
JOPLIN         CLOUDY    54  50  86 NE9       29.78R

$$
MOZ032>034-039>042-045>050-055>058-069>072-260900-
...CENTRAL MISSOURI...

CITY           SKY/WX    TMP DP  RH WIND       PRES   REMARKS
COLUMBIA       CLOUDY    48  45  89 NE13      29.83R
JEFFERSON CITY CLOUDY    49  45  86 VRB3      29.83R
ROLLA          CLOUDY    47  46  97 NE12      29.78S FOG
SEDALIA        CLOUDY    49  45  86 NE10      29.84S
WHITEMAN AFB   CLOUDY    48  46  92 NE9       29.83R
WARRENSBURG    CLOUDY    46  45  93 N7        29.84R FOG
OSAGE BEACH    CLOUDY    48  46  93 N8        29.80S

$$
MOZ051-052-059>065-260900-
...EAST CENTRAL MISSOURI...

CITY           SKY/WX    TMP DP  RH WIND       PRES   REMARKS
ST LOUIS INTL  CLOUDY    49  43  80 NE13      29.81S
SPIRIT OF STL  CLOUDY    48  44  86 NE12      29.80S
ST CHARLES     CLOUDY    48  42  80 NE12      29.81F

$$
MOZ072>076-082>087-097>100-106>115-260900-
...SOUTH CENTRAL AND SOUTHEAST MISSOURI...

CITY           SKY/WX    TMP DP  RH WIND       PRES   REMARKS
CAPE GIRARDEAU CLOUDY    54  51  90 N16       29.72R
FARMINGTON     CLOUDY    48  46  93 N10       29.80R
POPLAR BLUFF   CLOUDY    58  53  84 NE16G22   29.69R
WEST PLAINS    CLOUDY    57  53  86 N8        29.73S

$$



USA.gov is the U.S. government's official web portal to all federal, state and local government web resources and services.